weather.gov     
National Weather Service

Regional Weather Roundup
NWS Homepage
This page is being discontinued on March 12, 2014.
The same data is available at this site. Please update your bookmarks.
Thank you, and we apologize for the inconvenience.
Please send an email to SR-SRH.Webmaster@noaa.gov with any concerns.


Current Version
Previous Version:    01  02  03  04  05  06  07  08  09  10  11  12  13  14  15  16  17  18  19  20  21  22  23  24  25  26  
[Printable]
455
ASUS44 KLZK 211905
RWRLZK

WEATHER ROUNDUP FOR ARKANSAS
NATIONAL WEATHER SERVICE LITTLE ROCK AR
100 PM CST FRI NOV 21 2014

NOTE: "FAIR" INDICATES FEW OR NO CLOUDS BELOW 12,000 FEET WITH NO
SIGNIFICANT WEATHER AND/OR OBSTRUCTIONS TO VISIBILITY.

ARZ001-003-010-029-212000-
NORTHWEST ARKANSAS

CITY           SKY/WX    TMP DP  RH WIND       PRES   REMARKS
FAYETTEVILLE   CLOUDY    54  49  83 S12G20    30.16F
FORT SMITH     CLOUDY    47  44  90 E12       30.18F FOG
HARRISON       CLOUDY    43  39  86 SE13      30.22F
BENTONVILLE    CLOUDY    54  48  82 S9        30.17F
ROGERS         LGT RAIN  52  47  83 E8        30.16F
SILOAM SPGS    CLOUDY    54  46  76 SE10      30.16F
HIGHFILL       LGT RAIN  54  51  90 S8        30.15F
SPRINGDALE     CLOUDY    54  50  87 SE9       30.18F FOG
$$

ARZ004-005-016-212000-
NORTH CENTRAL ARKANSAS

CITY           SKY/WX    TMP DP  RH WIND       PRES   REMARKS
BATESVILLE     CLOUDY    41  37  87 NE5       30.30F
FLIPPIN        CLOUDY    45  34  65 SE8       30.26F
MTN HOME       CLOUDY    44  35  70 SE10      30.25F
$$

ARZ040-041-212000-
WEST CENTRAL ARKANSAS

CITY           SKY/WX    TMP DP  RH WIND       PRES   REMARKS
MENA           CLOUDY    52  52 100 E5        30.18F
MOUNT IDA      LGT RAIN  50  48  93 VRB5      30.18F FOG
$$

ARZ009-017-025-026-028-212000-
NORTHEAST ARKANSAS

CITY           SKY/WX    TMP DP  RH WIND       PRES   REMARKS
CORNING        CLOUDY    43  32  65 E7        30.34F
JONESBORO      LGT RAIN  47  35  63 E9        30.31F
NEWPORT        RAIN      43  41  93 NE5       30.32F
WALNUT RIDGE   CLOUDY    43  30  61 NE8       30.32S
BLYTHEVILLE    CLOUDY    45  38  76 SE9       30.32F
NW BLYTHEVILLE CLOUDY    46  36  66 SE10      30.33F
$$

ARZ022-023-033-042-044-212000-
CENTRAL ARKANSAS

CITY           SKY/WX    TMP DP  RH WIND       PRES   REMARKS
LITTLE ROCK    LGT RAIN  47  43  86 NE7       30.27F FOG
N LITTLE ROCK  CLOUDY    45  45 100 E7        30.27F
JACKSONVILLE   LGT RAIN  44  43  96 E8        30.27F FOG
SEARCY         LGT RAIN  44  43  96 NE9       30.30F FOG
HOT SPRINGS    CLOUDY    49  47  93 E7        30.23F FOG
RUSSELLVILLE   CLOUDY    45  42  89 VRB6      30.24F
CLINTON        LGT RAIN  45  41  87 CALM      30.29F
$$

ARZ036-212000-
EAST ARKANSAS

CITY           SKY/WX    TMP DP  RH WIND       PRES   REMARKS
WEST MEMPHIS   CLOUDY    53  45  74 E7        30.29F
$$

ARZ050-053-066-070-073-212000-
SOUTHWEST ARKANSAS

CITY           SKY/WX    TMP DP  RH WIND       PRES   REMARKS
ARKADELPHIA    RAIN      52  52 100 NE5       30.23F VSB 1
CAMDEN         MOSUNNY   57  52  82 NE3       30.23F
TEXARKANA      CLOUDY    58  57  97 SE7       30.18F
EL DORADO      LGT RAIN  60  51  72 S8        30.22F
DE QUEEN       CLOUDY    55  54  96 E7        30.16F FOG
$$

ARZ056-057-069-212000-
SOUTHEAST ARKANSAS

CITY           SKY/WX    TMP DP  RH WIND       PRES   REMARKS
PINE BLUFF     LGT RAIN  53  50  89 E7        30.25F
STUTTGART      CLOUDY    48  45  87 NE8       30.28F
MONTICELLO     CLOUDY    57  50  77 CALM      30.24F

$$






U.S. Dept. of Commerce
NOAA National Weather Service
1325 East West Highway
Silver Spring, MD 20910
E-mail: w-nws.webmaster@noaa.gov
Page last modified: May 16, 2007
NATIONAL WEATHER SERVICE: for Safety, for Work, for Fun - FOR LIFE